Regional Weather Roundup
Issued by NWS

Home | Current Version | Previous Version | Text Only | Print | Product List | Glossary On
Versions: 1 2 3 4 5 6 7 8 9 10 11 12 13 14 15 16 17 18 19 20 21 22 23 24 25 26 27 28
000
ASUS46 KPQR 241510
RWROR

OREGON REGIONAL WEATHER ROUNDUP
NATIONAL WEATHER SERVICE PORTLAND OR
800 AM PDT THU APR 24 2014

NOTE: "FAIR" INDICATES FEW OR NO CLOUDS BELOW 12,000 FEET WITH
NO SIGNIFICANT WEATHER AND/OR OBSTRUCTIONS TO VISIBILITY.

ORZ001>013-241600-
NORTHWEST OREGON


CITY           SKY/WX    TMP DP  RH WIND       PRES   REMARKS
ASTORIA        PTSUNNY   49  43  80 SW12      29.75R
NEWPORT        CLOUDY    50  48  93 SW10      29.88R FOG
PORTLAND       PTSUNNY   53  50  89 SE8       29.79R
VANCOUVER WA   CLOUDY    52  48  86 SE5       29.79R
SCAPPOOSE      PTSUNNY   53  51  93 CALM      29.77R
HILLSBORO      PTSUNNY   51  48  89 S8        29.78R
AURORA         LGT RAIN  50  50 100 S5        29.81R
MCMINNVILLE    CLOUDY    51  48  89 SW10      29.81R
SALEM          PTSUNNY   51  47  86 S12       29.81R
CORVALLIS      CLOUDY    52  46  82 N3        29.85R
EUGENE         LGT RAIN  50  47  89 SW8       29.88R
$$

ORZ021-028-241600-
SOUTHWEST OREGON


CITY           SKY/WX    TMP DP  RH WIND       PRES   REMARKS
NORTH BEND     CLOUDY    52  52 100 S3        29.92R
BROOKINGS      LGT RAIN  52  52 100 S12G17    29.99R VSB 1/4
ROSEBURG       RAIN      51  47  86 E3        29.89R FOG
SEXTON SUMMIT  LGT RAIN  39  39 100 S18G35    29.87S VSB<1/4 WCI  30
MEDFORD        CLOUDY    50  48  93 N5        29.92R
$$

ORZ009-041-241600-
COLUMBIA GORGE


CITY           SKY/WX    TMP DP  RH WIND       PRES   REMARKS
TROUTDALE      CLOUDY    53  48  83 SW7       29.79R
THE DALLES     LGT RAIN  51  49  92 NW3       29.77R
$$

ORZ029>031-042>050-061>064-241600-
EASTERN OREGON


CITY           SKY/WX    TMP DP  RH WIND       PRES   REMARKS
REDMOND        MOSUNNY   48  36  63 SW20G28   29.81S
BEND           MOSUNNY   46  37  71 SW21G26   29.82R
KLAMATH FALLS  PTSUNNY   43  37  79 E3        29.94F
LAKEVIEW       CLOUDY    43  34  70 S15G23    29.98S
HERMISTON      CLOUDY    54  47  77 SE9       29.75F
PENDLETON      LGT RAIN  49  44  83 S10       29.78F
JOHN DAY       LGT RAIN  46  37  71 SW20G28   29.87R
MEACHAM        LGT RAIN  41  40  96 CALM      29.83R FOG
LA GRANDE      CLOUDY    45  37  76 S5        29.84S
BAKER CITY     PTSUNNY   44  38  79 CALM      29.85R
BURNS          PTSUNNY   46  40  79 SW7       29.91R
ROME             N/A     52  32  46 S22       29.91R
ONTARIO        CLOUDY    48  44  86 SE8       29.93R
$$



USA.gov is the U.S. government's official web portal to all federal, state and local government web resources and services.